{"data":{"norad_id":60720,"epoch":"2026-09-21T22:29:10.288032Z","epoch_age_seconds":64360,"freshness":"FRESH","line1":"1 60720U 24152A   26264.93692463  .00000516  00000+0  91170-5 0  9995","line2":"2 60720  53.1583 229.1427 0000888  78.0626 282.0491 15.69712700119658","mean_motion":15.697127,"eccentricity":8.88e-5,"inclination_deg":53.1583,"raan_deg":229.1427,"arg_perigee_deg":78.0626,"mean_anomaly_deg":282.0491,"bstar":9.117e-6,"rev_number":11965,"period_min":91.736532424054,"perigee_km":359.12070244942,"apogee_km":360.3173456793,"semimajor_km":6737.8560240644,"source":"CELESTRAK","updated_at":"2026-09-22T09:00:49.276562Z"}}